When you browse on this site, cookies collect data to enhance your experience and personalize the content and advertising you see.
Visit our Privacy Policy to learn more. By continuing to use the site, you agree to this use of cookies and data.
  • In Belgien
  • Länderverzeichnis
  • Für 7 Tage
  • Wassertemperatur
  • Satellitenkarten
  • Wetterkarte
  • Widgets
  • user-avatar
    Anmelden

    Stündliche Wetter Podosenovo

    Heute, 23 Februar, Samstag

    Zeit Temperatur Niederschläge Wind Luftdruck Luftfeuchtigkeit
    00:00 -14°C° 0 mm 4 m/S 761 mmHg 91%
    01:00 -15°C° 0 mm 4 m/S 762 mmHg 92%
    02:00 -16°C° 0 mm 3 m/S 762 mmHg 94%
    03:00 -16°C° 0 mm 2 m/S 762 mmHg 94%
    04:00 -16°C° 0 mm 2 m/S 762 mmHg 94%
    05:00 -17°C° 0 mm 2 m/S 762 mmHg 94%
    06:00 -17°C° 0 mm 2 m/S 762 mmHg 93%
    07:00 -16°C° 0 mm 2 m/S 762 mmHg 92%
    08:00 -15°C° 0 mm 2 m/S 762 mmHg 90%
    09:00 -13°C° 0 mm 2 m/S 762 mmHg 87%
    10:00 -13°C° 0 mm 3 m/S 761 mmHg 84%
    11:00 -10°C° 0 mm 3 m/S 761 mmHg 81%
    12:00 -9°C° 0 mm 3 m/S 760 mmHg 81%
    13:00 -9°C° 0 mm 4 m/S 760 mmHg 80%
    14:00 -9°C° 0 mm 4 m/S 759 mmHg 79%
    15:00 -9°C° 0.3 mm 4 m/S 758 mmHg 83%
    16:00 -9°C° 0.3 mm 4 m/S 758 mmHg 87%
    17:00 -10°C° 0.3 mm 5 m/S 757 mmHg 91%
    18:00 -9°C° 0.3 mm 4 m/S 757 mmHg 92%
    19:00 -9°C° 0.3 mm 4 m/S 756 mmHg 92%
    20:00 -8°C° 0.3 mm 4 m/S 756 mmHg 92%
    21:00 -7°C° 0.2 mm 3 m/S 755 mmHg 93%
    22:00 -7°C° 0.2 mm 3 m/S 755 mmHg 93%
    23:00 -7°C° 0.2 mm 3 m/S 755 mmHg 94%

    Morgen, 24 Februar, Sonntag

    Zeit Temperatur Niederschläge Wind Luftdruck Luftfeuchtigkeit
    00:00 -6°C° 0 mm 2 m/S 755 mmHg 94%
    01:00 -6°C° 0 mm 2 m/S 755 mmHg 95%
    02:00 -6°C° 0 mm 2 m/S 755 mmHg 96%
    03:00 -5°C° 0 mm 2 m/S 755 mmHg 96%
    04:00 -5°C° 0 mm 2 m/S 755 mmHg 96%
    05:00 -3°C° 0 mm 1 m/S 754 mmHg 97%
    06:00 -4°C° 0 mm 2 m/S 755 mmHg 97%
    07:00 -3°C° 0 mm 2 m/S 755 mmHg 97%
    08:00 -3°C° 0 mm 2 m/S 755 mmHg 97%
    09:00 -2°C° 0.1 mm 2 m/S 755 mmHg 97%
    10:00 -1°C° 0.1 mm 2 m/S 755 mmHg 98%
    11:00 +1°C° 0.1 mm 2 m/S 755 mmHg 99%
    12:00 +1°C° 0 mm 2 m/S 754 mmHg 99%
    13:00 +1°C° 0 mm 2 m/S 754 mmHg 99%
    14:00 +1°C° 0 mm 2 m/S 754 mmHg 99%
    15:00 +1°C° 0 mm 2 m/S 754 mmHg 99%
    16:00 +1°C° 0 mm 2 m/S 753 mmHg 98%
    17:00 +1°C° 0 mm 2 m/S 753 mmHg 98%
    18:00 0°C° 0 mm 3 m/S 753 mmHg 97%
    19:00 0°C° 0 mm 3 m/S 752 mmHg 96%
    20:00 0°C° 0 mm 3 m/S 752 mmHg 96%
    21:00 -1°C° 0.1 mm 4 m/S 751 mmHg 95%
    22:00 -1°C° 0.1 mm 4 m/S 750 mmHg 95%
    23:00 -1°C° 0.1 mm 4 m/S 749 mmHg 95%

    übermorgen, 25 Februar, Montag

    Zeit Temperatur Niederschläge Wind Luftdruck Luftfeuchtigkeit
    00:00 -1°C° 0.1 mm 4 m/S 748 mmHg 94%
    01:00 -1°C° 0.1 mm 4 m/S 748 mmHg 94%
    02:00 -1°C° 0.1 mm 4 m/S 747 mmHg 94%
    03:00 -1°C° 0 mm 4 m/S 747 mmHg 93%
    04:00 -1°C° 0 mm 5 m/S 746 mmHg 92%
    05:00 -1°C° 0 mm 5 m/S 746 mmHg 92%
    06:00 -1°C° 0 mm 5 m/S 745 mmHg 91%
    07:00 -1°C° 0 mm 5 m/S 745 mmHg 89%
    08:00 -1°C° 0 mm 4 m/S 745 mmHg 88%
    09:00 -1°C° 0.1 mm 5 m/S 745 mmHg 88%
    10:00 -1°C° 0.1 mm 5 m/S 744 mmHg 89%
    11:00 -1°C° 0.1 mm 5 m/S 744 mmHg 89%
    12:00 -1°C° 0.2 mm 5 m/S 743 mmHg 89%
    13:00 -1°C° 0.2 mm 5 m/S 743 mmHg 88%
    14:00 -1°C° 0.2 mm 5 m/S 742 mmHg 88%
    15:00 -1°C° 0.1 mm 4 m/S 742 mmHg 88%
    16:00 -1°C° 0.1 mm 4 m/S 742 mmHg 88%
    17:00 -1°C° 0.1 mm 4 m/S 742 mmHg 88%
    18:00 -1°C° 0.1 mm 4 m/S 742 mmHg 89%
    19:00 -1°C° 0.1 mm 4 m/S 742 mmHg 89%
    20:00 -1°C° 0.1 mm 4 m/S 742 mmHg 90%
    21:00 -2°C° 0 mm 4 m/S 742 mmHg 90%
    22:00 -2°C° 0 mm 4 m/S 742 mmHg 90%
    23:00 -2°C° 0 mm 4 m/S 742 mmHg 91%

    26 Februar, Dienstag

    Zeit Temperatur Niederschläge Wind Luftdruck Luftfeuchtigkeit
    00:00 -2°C° 0 mm 4 m/S 742 mmHg 89%
    01:00 -2°C° 0 mm 4 m/S 742 mmHg 88%
    02:00 -2°C° 0 mm 5 m/S 742 mmHg 87%
    03:00 -2°C° 0 mm 4 m/S 741 mmHg 87%
    04:00 -2°C° 0 mm 4 m/S 741 mmHg 87%
    05:00 -3°C° 0 mm 4 m/S 741 mmHg 87%
    06:00 -2°C° 0 mm 4 m/S 741 mmHg 88%
    07:00 -2°C° 0 mm 4 m/S 741 mmHg 89%
    08:00 -2°C° 0 mm 4 m/S 741 mmHg 90%
    09:00 -2°C° 0 mm 4 m/S 741 mmHg 90%
    10:00 -1°C° 0 mm 5 m/S 741 mmHg 90%
    11:00 -1°C° 0 mm 5 m/S 741 mmHg 90%
    12:00 -1°C° 0.1 mm 5 m/S 741 mmHg 88%
    13:00 -1°C° 0.1 mm 5 m/S 742 mmHg 86%
    14:00 -1°C° 0.1 mm 5 m/S 742 mmHg 83%
    15:00 -2°C° 0 mm 5 m/S 743 mmHg 84%
    16:00 -2°C° 0 mm 4 m/S 743 mmHg 85%
    17:00 -3°C° 0 mm 4 m/S 744 mmHg 85%
    18:00 -3°C° 0 mm 4 m/S 744 mmHg 85%
    19:00 -4°C° 0 mm 4 m/S 745 mmHg 85%
    20:00 -5°C° 0 mm 4 m/S 746 mmHg 85%
    21:00 -7°C° 0 mm 4 m/S 746 mmHg 86%
    22:00 -8°C° 0 mm 4 m/S 746 mmHg 86%
    23:00 -9°C° 0 mm 4 m/S 747 mmHg 86%

    27 Februar, Mittwoch

    Zeit Temperatur Niederschläge Wind Luftdruck Luftfeuchtigkeit
    00:00 -9°C° 0 mm 4 m/S 747 mmHg 87%
    01:00 -10°C° 0 mm 4 m/S 747 mmHg 89%
    02:00 -9°C° 0 mm 3 m/S 748 mmHg 90%
    03:00 -10°C° 0 mm 4 m/S 748 mmHg 88%
    04:00 -10°C° 0 mm 4 m/S 748 mmHg 86%
    05:00 -10°C° 0 mm 4 m/S 748 mmHg 84%
    06:00 -10°C° 0 mm 3 m/S 748 mmHg 85%
    07:00 -12°C° 0 mm 3 m/S 748 mmHg 86%
    08:00 -10°C° 0 mm 2 m/S 748 mmHg 87%
    09:00 -9°C° 0 mm 2 m/S 747 mmHg 86%
    10:00 -9°C° 0 mm 2 m/S 747 mmHg 85%
    11:00 -8°C° 0 mm 2 m/S 746 mmHg 84%
    12:00 -7°C° 0 mm 2 m/S 745 mmHg 84%
    13:00 -7°C° 0 mm 2 m/S 744 mmHg 83%
    14:00 -7°C° 0 mm 3 m/S 743 mmHg 83%
    15:00 -6°C° 0.1 mm 2 m/S 743 mmHg 86%
    16:00 -6°C° 0.1 mm 2 m/S 742 mmHg 88%
    17:00 -6°C° 0.1 mm 2 m/S 741 mmHg 91%
    18:00 -6°C° 0.1 mm 2 m/S 741 mmHg 92%
    19:00 -5°C° 0.1 mm 2 m/S 740 mmHg 93%
    20:00 -5°C° 0.1 mm 2 m/S 740 mmHg 93%
    21:00 -4°C° 0 mm 2 m/S 739 mmHg 94%
    22:00 -5°C° 0 mm 3 m/S 738 mmHg 94%
    23:00 -4°C° 0 mm 3 m/S 738 mmHg 94%

    28 Februar, Donnerstag

    Zeit Temperatur Niederschläge Wind Luftdruck Luftfeuchtigkeit
    00:00 -2°C° 0.1 mm 3 m/S 737 mmHg 93%
    01:00 -3°C° 0.1 mm 4 m/S 737 mmHg 91%
    02:00 -2°C° 0.1 mm 4 m/S 736 mmHg 90%
    03:00 -2°C° 0.1 mm 4 m/S 736 mmHg 91%
    04:00 -3°C° 0.1 mm 4 m/S 735 mmHg 91%
    05:00 -3°C° 0.1 mm 4 m/S 735 mmHg 92%
    06:00 -2°C° 0 mm 4 m/S 735 mmHg 91%
    07:00 -2°C° 0 mm 4 m/S 734 mmHg 91%
    08:00 -2°C° 0 mm 4 m/S 734 mmHg 91%
    09:00 -2°C° 0 mm 4 m/S 734 mmHg 92%
    10:00 -1°C° 0 mm 4 m/S 733 mmHg 93%
    11:00 -1°C° 0 mm 4 m/S 733 mmHg 94%
    12:00 -1°C° 0.1 mm 4 m/S 732 mmHg 93%
    13:00 -1°C° 0.1 mm 4 m/S 731 mmHg 93%
    14:00 -1°C° 0.1 mm 4 m/S 731 mmHg 92%
    15:00 -1°C° 0 mm 4 m/S 730 mmHg 92%
    16:00 -2°C° 0 mm 4 m/S 729 mmHg 92%
    17:00 -1°C° 0 mm 3 m/S 729 mmHg 91%
    18:00 -1°C° 0.1 mm 3 m/S 728 mmHg 92%
    19:00 -1°C° 0.1 mm 3 m/S 727 mmHg 93%
    20:00 -2°C° 0.1 mm 3 m/S 727 mmHg 94%
    21:00 -1°C° 0.7 mm 3 m/S 726 mmHg 95%
    22:00 -1°C° 0.7 mm 3 m/S 726 mmHg 95%
    23:00 -1°C° 0.7 mm 3 m/S 725 mmHg 95%
    Mehr zeigen